• En Estados Unidos
  • Lista de países
  • Para 7 días
  • Temperatura del agua
  • Mapa Satelital
  • El tiempo en el mapa
  • Informadores
  • user-avatar
    Iniciar sesión

    Tiempo cada hora Elbasan

    Hoy, 23 Septiembre, Domingo

    Tiempo Temperatura Precipitaciones Viento Presión Humedad
    00:00 +21°C° 0 mm 1 mps 738 mmHg 74%
    01:00 +21°C° 0 mm 1 mps 738 mmHg 73%
    02:00 +21°C° 0 mm 1 mps 738 mmHg 72%
    03:00 +21°C° 0 mm 1 mps 738 mmHg 72%
    04:00 +20°C° 0 mm 1 mps 738 mmHg 71%
    05:00 +21°C° 0 mm 1 mps 738 mmHg 67%
    06:00 +23°C° 0 mm 1 mps 739 mmHg 62%
    07:00 +24°C° 0 mm 1 mps 739 mmHg 58%
    08:00 +26°C° 0 mm 1 mps 739 mmHg 51%
    09:00 +28°C° 0 mm 1 mps 739 mmHg 44%
    10:00 +30°C° 0 mm 1 mps 739 mmHg 37%
    11:00 +31°C° 0 mm 1 mps 739 mmHg 35%
    12:00 +32°C° 0 mm 2 mps 739 mmHg 33%
    13:00 +32°C° 0 mm 2 mps 739 mmHg 32%
    14:00 +32°C° 0 mm 2 mps 738 mmHg 34%
    15:00 +31°C° 0 mm 2 mps 738 mmHg 36%
    16:00 +30°C° 0 mm 2 mps 738 mmHg 39%
    17:00 +28°C° 0 mm 2 mps 738 mmHg 46%
    18:00 +26°C° 0 mm 1 mps 738 mmHg 54%
    19:00 +23°C° 0 mm 1 mps 738 mmHg 62%
    20:00 +23°C° 0 mm 1 mps 738 mmHg 63%
    21:00 +23°C° 0 mm 1 mps 738 mmHg 64%
    22:00 +22°C° 0 mm 1 mps 738 mmHg 65%
    23:00 +22°C° 0 mm 1 mps 738 mmHg 66%

    Mañana, 24 Septiembre, Lunes

    Tiempo Temperatura Precipitaciones Viento Presión Humedad
    00:00 +22°C° 0 mm 1 mps 737 mmHg 67%
    01:00 +21°C° 0 mm 1 mps 737 mmHg 69%
    02:00 +21°C° 0 mm 1 mps 737 mmHg 69%
    03:00 +21°C° 0 mm 1 mps 737 mmHg 69%
    04:00 +19°C° 0 mm 2 mps 736 mmHg 69%
    05:00 +20°C° 0 mm 2 mps 736 mmHg 65%
    06:00 +21°C° 0 mm 2 mps 736 mmHg 60%
    07:00 +24°C° 0 mm 2 mps 736 mmHg 56%
    08:00 +25°C° 0 mm 2 mps 736 mmHg 50%
    09:00 +27°C° 0 mm 2 mps 736 mmHg 43%
    10:00 +29°C° 0 mm 2 mps 736 mmHg 37%
    11:00 +30°C° 0 mm 3 mps 735 mmHg 36%
    12:00 +30°C° 0 mm 3 mps 735 mmHg 35%
    13:00 +31°C° 0 mm 3 mps 735 mmHg 34%
    14:00 +30°C° 0 mm 3 mps 735 mmHg 38%
    15:00 +30°C° 0 mm 3 mps 735 mmHg 42%
    16:00 +29°C° 0 mm 3 mps 735 mmHg 47%
    17:00 +27°C° 0 mm 3 mps 735 mmHg 56%
    18:00 +25°C° 0 mm 2 mps 736 mmHg 64%
    19:00 +23°C° 0 mm 2 mps 736 mmHg 73%
    20:00 +21°C° 0 mm 2 mps 737 mmHg 73%
    21:00 +20°C° 0 mm 2 mps 737 mmHg 73%
    22:00 +19°C° 0 mm 2 mps 738 mmHg 72%
    23:00 +19°C° 0 mm 3 mps 738 mmHg 70%

    Pasado mañana, 25 Septiembre, Martes

    Tiempo Temperatura Precipitaciones Viento Presión Humedad
    00:00 +18°C° 0 mm 3 mps 738 mmHg 68%
    01:00 +17°C° 0 mm 3 mps 738 mmHg 65%
    02:00 +17°C° 0 mm 4 mps 738 mmHg 64%
    03:00 +15°C° 0 mm 4 mps 739 mmHg 62%
    04:00 +15°C° 0 mm 4 mps 739 mmHg 60%
    05:00 +15°C° 0 mm 4 mps 739 mmHg 57%
    06:00 +15°C° 0 mm 4 mps 740 mmHg 55%
    07:00 +15°C° 0 mm 5 mps 740 mmHg 52%
    08:00 +17°C° 0 mm 5 mps 740 mmHg 47%
    09:00 +20°C° 0 mm 5 mps 740 mmHg 42%
    10:00 +22°C° 0 mm 4 mps 740 mmHg 37%
    11:00 +23°C° 0 mm 5 mps 740 mmHg 35%
    12:00 +25°C° 0 mm 5 mps 740 mmHg 32%
    13:00 +26°C° 0 mm 5 mps 740 mmHg 30%
    14:00 +25°C° 0 mm 5 mps 740 mmHg 30%
    15:00 +23°C° 0 mm 5 mps 740 mmHg 30%
    16:00 +23°C° 0 mm 5 mps 740 mmHg 29%
    17:00 +20°C° 0 mm 5 mps 741 mmHg 32%
    18:00 +17°C° 0 mm 5 mps 741 mmHg 34%
    19:00 +15°C° 0 mm 4 mps 742 mmHg 36%
    20:00 +14°C° 0 mm 5 mps 742 mmHg 37%
    21:00 +13°C° 0 mm 5 mps 743 mmHg 38%
    22:00 +12°C° 0 mm 5 mps 743 mmHg 40%
    23:00 +12°C° 0 mm 5 mps 743 mmHg 41%

    26 Septiembre, Miércoles

    Tiempo Temperatura Precipitaciones Viento Presión Humedad
    00:00 +11°C° 0 mm 4 mps 743 mmHg 42%
    01:00 +10°C° 0 mm 4 mps 744 mmHg 43%
    02:00 +10°C° 0 mm 4 mps 744 mmHg 45%
    03:00 +8°C° 0 mm 4 mps 744 mmHg 46%
    04:00 +8°C° 0 mm 4 mps 744 mmHg 47%
    05:00 +10°C° 0 mm 4 mps 744 mmHg 45%
    06:00 +10°C° 0 mm 4 mps 745 mmHg 43%
    07:00 +10°C° 0 mm 5 mps 745 mmHg 41%
    08:00 +13°C° 0 mm 5 mps 745 mmHg 36%
    09:00 +16°C° 0 mm 5 mps 745 mmHg 30%
    10:00 +19°C° 0 mm 5 mps 745 mmHg 24%
    11:00 +20°C° 0 mm 5 mps 745 mmHg 22%
    12:00 +20°C° 0 mm 5 mps 745 mmHg 20%
    13:00 +21°C° 0 mm 5 mps 744 mmHg 18%
    14:00 +21°C° 0 mm 5 mps 744 mmHg 19%
    15:00 +21°C° 0 mm 4 mps 744 mmHg 19%
    16:00 +20°C° 0 mm 4 mps 744 mmHg 20%
    17:00 +18°C° 0 mm 4 mps 744 mmHg 23%
    18:00 +15°C° 0 mm 4 mps 745 mmHg 27%
    19:00 +12°C° 0 mm 4 mps 745 mmHg 30%
    20:00 +11°C° 0 mm 3 mps 745 mmHg 32%
    21:00 +11°C° 0 mm 3 mps 746 mmHg 35%
    22:00 +10°C° 0 mm 3 mps 746 mmHg 37%
    23:00 +10°C° 0 mm 3 mps 746 mmHg 39%

    27 Septiembre, Jueves

    Tiempo Temperatura Precipitaciones Viento Presión Humedad
    00:00 +9°C° 0 mm 3 mps 745 mmHg 42%
    01:00 +9°C° 0 mm 3 mps 745 mmHg 44%
    02:00 +8°C° 0 mm 3 mps 745 mmHg 44%
    03:00 +8°C° 0 mm 3 mps 745 mmHg 45%
    04:00 +8°C° 0 mm 3 mps 744 mmHg 45%
    05:00 +9°C° 0 mm 3 mps 744 mmHg 42%
    06:00 +10°C° 0 mm 3 mps 744 mmHg 38%
    07:00 +11°C° 0 mm 3 mps 744 mmHg 35%
    08:00 +14°C° 0 mm 3 mps 743 mmHg 29%
    09:00 +18°C° 0 mm 3 mps 743 mmHg 23%
    10:00 +21°C° 0 mm 3 mps 742 mmHg 17%
    11:00 +22°C° 0 mm 3 mps 741 mmHg 16%
    12:00 +23°C° 0 mm 4 mps 741 mmHg 14%
    13:00 +25°C° 0 mm 4 mps 740 mmHg 13%
    14:00 +25°C° 0 mm 4 mps 740 mmHg 15%
    15:00 +25°C° 0 mm 5 mps 739 mmHg 16%
    16:00 +25°C° 0 mm 5 mps 738 mmHg 18%
    17:00 +21°C° 0 mm 4 mps 738 mmHg 22%
    18:00 +18°C° 0 mm 4 mps 738 mmHg 26%
    19:00 +16°C° 0 mm 3 mps 738 mmHg 29%
    20:00 +14°C° 0 mm 3 mps 738 mmHg 30%
    21:00 +13°C° 0 mm 3 mps 738 mmHg 30%
    22:00 +13°C° 0 mm 3 mps 738 mmHg 31%
    23:00 +12°C° 0 mm 3 mps 737 mmHg 32%

    28 Septiembre, Viernes

    Tiempo Temperatura Precipitaciones Viento Presión Humedad
    00:00 +12°C° 0 mm 3 mps 737 mmHg 33%
    01:00 +12°C° 0 mm 3 mps 737 mmHg 34%
    02:00 +11°C° 0 mm 3 mps 737 mmHg 34%
    03:00 +11°C° 0 mm 3 mps 736 mmHg 34%
    04:00 +11°C° 0 mm 3 mps 736 mmHg 34%
    05:00 +12°C° 0 mm 3 mps 736 mmHg 33%
    06:00 +13°C° 0 mm 3 mps 736 mmHg 32%
    07:00 +14°C° 0 mm 3 mps 736 mmHg 31%
    08:00 +18°C° 0 mm 3 mps 736 mmHg 26%
    09:00 +21°C° 0 mm 2 mps 736 mmHg 20%
    10:00 +25°C° 0 mm 2 mps 735 mmHg 15%
    11:00 +26°C° 0 mm 2 mps 735 mmHg 14%
    12:00 +27°C° 0 mm 2 mps 735 mmHg 13%
    13:00 +28°C° 0 mm 3 mps 734 mmHg 12%
    14:00 +28°C° 0 mm 3 mps 734 mmHg 14%
    15:00 +27°C° 0 mm 3 mps 734 mmHg 15%
    16:00 +27°C° 0 mm 3 mps 734 mmHg 17%
    17:00 +24°C° 0 mm 3 mps 734 mmHg 20%
    18:00 +21°C° 0 mm 3 mps 734 mmHg 23%
    19:00 +18°C° 0 mm 2 mps 734 mmHg 27%
    20:00 +17°C° 0 mm 2 mps 735 mmHg 26%
    21:00 +17°C° 0 mm 2 mps 735 mmHg 25%
    22:00 +16°C° 0 mm 2 mps 735 mmHg 24%
    23:00 +16°C° 0 mm 2 mps 735 mmHg 25%
    Mostrar más